Location: Newark
(12.4436°N, 0.6167°W)
Time: 05:04:11
(UTC+00:00)

Vanguard 2 - All Passes

Search period start: 08 December 2019 00:00
Search period end: 18 December 2019 00:00
Orbit: 553 x 2938 km, 32.9° (Epoch: 07 December)

Date Brightness Start Highest point End Pass type
(mag) Time Alt. Az. Time Alt. Az. Time Alt. Az.
08 Dec - 00:49:30 10° WSW 01:03:25 68° NNW 01:21:28 10° NE visible
08 Dec - 03:03:07 10° W 03:18:44 40° NNW 03:34:14 10° NE visible
08 Dec - 05:19:50 10° WNW 05:35:16 35° N 05:47:19 10° ENE visible
08 Dec - 07:35:05 10° NW 07:49:53 51° NNE 07:59:11 10° E daylight
08 Dec - 09:49:01 10° WNW 10:00:48 64° SW 10:07:42 10° SE daylight
08 Dec - 20:53:08 10° S 20:59:31 19° SE 21:07:57 10° E visible
08 Dec - 22:58:07 10° SW 23:09:10 71° SE 23:26:02 10° ENE night (unlit)
09 Dec - 01:08:04 10° W 01:22:04 57° NNW 01:39:44 10° NE visible
09 Dec - 03:22:31 10° WNW 03:37:59 37° N 03:52:54 10° NE visible
09 Dec - 05:38:48 10° NW 05:54:30 38° N 06:06:20 10° ENE visible
09 Dec - 07:53:22 10° NW 08:08:27 63° NNE 08:17:37 10° ESE daylight
09 Dec - 10:07:47 10° WNW 10:18:30 43° SW 10:25:06 10° SSE daylight
09 Dec - 21:09:29 10° SSW 21:17:09 29° SE 21:28:18 10° E visible
09 Dec - 23:15:55 10° SW 23:27:13 89° SSE 23:44:31 10° ENE night (unlit)
10 Dec - 01:26:52 10° W 01:40:55 49° NNW 01:58:03 10° NE visible
10 Dec - 03:41:53 10° WNW 03:57:21 36° N 04:11:47 10° ENE visible
10 Dec - 05:57:31 10° NW 06:13:37 42° NNE 06:25:18 10° E daylight
10 Dec - 08:11:40 10° NW 08:26:47 81° NNE 08:35:47 10° ESE daylight
10 Dec - 10:27:02 10° W 10:36:04 29° SW 10:42:08 10° SSE daylight
10 Dec - 21:26:25 10° SSW 21:34:47 41° SE 21:47:48 10° ENE visible
10 Dec - 23:33:59 10° WSW 23:45:29 75° NNW 00:02:51 10° NE visible
11 Dec - 01:45:53 10° W 01:59:57 42° NNW 02:16:32 10° NE visible
11 Dec - 04:01:06 10° WNW 04:16:45 36° N 04:30:52 10° ENE visible
11 Dec - 06:16:00 10° NW 06:32:33 49° NNE 06:44:07 10° E daylight
11 Dec - 08:30:04 10° WNW 08:44:54 79° SW 08:53:42 10° SE daylight
11 Dec - 10:47:04 10° W 10:53:37 18° SW 10:58:32 10° S daylight
11 Dec - 19:42:54 10° SE 19:43:57 10° SE 19:45:01 10° SE visible
11 Dec - 21:43:43 10° SW 21:52:29 57° SE 22:06:47 10° ENE visible
11 Dec - 23:52:19 10° WSW 00:04:00 61° NNW 00:21:08 10° NE visible
12 Dec - 02:05:03 10° WNW 02:19:11 38° N 02:35:13 10° NE visible
12 Dec - 04:20:05 10° NW 04:36:06 38° N 04:50:02 10° ENE visible
12 Dec - 06:34:20 10° NW 06:51:17 59° NNE 07:02:42 10° ESE daylight
12 Dec - 08:48:40 10° WNW 09:02:46 59° SW 09:11:20 10° SE daylight
12 Dec - 11:09:40 10° WSW 11:11:14 10° SW 11:12:41 10° SW daylight
12 Dec - 19:56:36 10° S 20:01:34 18° SE 20:08:08 10° E visible
12 Dec - 22:01:20 10° SW 22:10:21 77° SE 22:25:24 10° ENE visible
13 Dec - 00:10:54 10° W 00:22:42 51° NNW 00:39:28 10° NE visible
13 Dec - 02:24:14 10° WNW 02:38:31 36° N 02:54:09 10° ENE visible
13 Dec - 04:38:49 10° NW 04:55:20 42° NNE 05:09:11 10° E visible
13 Dec - 06:52:38 10° NW 07:09:48 73° NNE 07:21:04 10° ESE daylight
13 Dec - 09:07:36 10° WNW 09:20:29 42° SW 09:28:40 10° SSE daylight
13 Dec - 20:12:57 10° SSW 20:19:07 28° SE 20:28:16 10° E visible
13 Dec - 22:19:13 10° WSW 22:28:26 83° NNW 22:43:50 10° NE visible
14 Dec - 00:29:42 10° W 00:41:37 43° NNW 00:57:56 10° NE visible
14 Dec - 02:43:21 10° WNW 02:57:55 36° N 03:13:20 10° ENE visible
14 Dec - 04:57:20 10° NW 05:14:24 48° NNE 05:28:12 10° E visible
14 Dec - 07:10:58 10° WNW 07:28:06 89° NE 07:39:09 10° ESE daylight
14 Dec - 09:27:02 10° W 09:38:05 30° SW 09:45:38 10° SSE daylight
14 Dec - 20:29:55 10° SSW 20:36:41 42° SE 20:47:34 10° ENE visible
14 Dec - 22:37:21 10° WSW 22:46:45 66° NNW 23:02:08 10° NE night (unlit)
15 Dec - 00:48:39 10° WNW 01:00:43 38° N 01:16:35 10° NE visible
15 Dec - 03:02:17 10° NW 03:17:17 37° N 03:32:39 10° ENE visible
15 Dec - 05:15:41 10° NW 05:33:16 56° NNE 05:47:01 10° E visible
15 Dec - 07:29:25 10° WNW 07:46:10 73° SW 07:56:59 10° SE daylight
15 Dec - 09:47:17 10° W 09:55:42 20° SW 10:02:02 10° S daylight
15 Dec - 20:47:18 10° SW 20:54:22 61° SE 21:06:23 10° ENE visible
15 Dec - 22:55:45 10° W 23:05:17 53° NNW 23:20:25 10° NE night (unlit)
16 Dec - 01:07:40 10° WNW 01:19:57 35° N 01:35:31 10° NE visible
16 Dec - 03:21:00 10° NW 03:36:34 40° NNE 03:52:01 10° ENE visible
16 Dec - 05:33:57 10° NW 05:51:56 67° NNE 06:05:35 10° ESE visible
16 Dec - 07:48:07 10° WNW 08:04:03 56° SW 08:14:33 10° SE daylight
16 Dec - 10:09:23 10° WSW 10:13:27 12° SW 10:16:58 10° SSW daylight
16 Dec - 19:00:19 10° S 19:04:04 16° SE 19:08:52 10° E visible
16 Dec - 21:05:01 10° SW 21:12:16 85° SE 21:24:53 10° ENE visible
16 Dec - 23:14:22 10° W 23:24:02 43° NNW 23:38:48 10° NE night (unlit)
17 Dec - 01:26:40 10° WNW 01:39:15 34° N 01:54:43 10° ENE visible
17 Dec - 03:39:29 10° NW 03:55:42 45° NNE 04:11:17 10° E visible
17 Dec - 05:52:12 10° NW 06:10:23 80° NNE 06:23:53 10° ESE visible
17 Dec - 08:07:10 10° WNW 08:21:49 42° SW 08:31:49 10° SSE daylight
17 Dec - 19:16:39 10° SSW 19:21:35 27° SE 19:28:48 10° E visible
17 Dec - 21:22:59 10° WSW 21:30:23 72° NNW 21:43:12 10° NE visible
